Regional Weather Roundup
Issued by NWS

Home | Current Version | Previous Version | Graphics & Text | Print | Product List | Glossary On
Versions: 1 2 3 4 5 6 7 8 9 10 11 12 13 14 15 16 17 18 19 20 21 22 23 24 25 26 27 28 29 30 31 32 33 34 35 36 37 38 39 40 41 42 43 44 45 46 47 48 49 50
000
ASUS44 KMEG 230000
RWRTN
TENNESSEE HOURLY STATE WEATHER ROUNDUP
NATIONAL WEATHER SERVICE MEMPHIS TN
700 PM CDT TUE APR 22 2014

TNZ002-004-019-021-049-052-054-088>092-230100-
WEST TENNESSEE

CITY           SKY/WX    TMP DP  RH WIND       PRES   REMARKS
MEMPHIS INTL   PTCLDY    72  42  34 N10G18    29.91S
NWS MEMPHIS      N/A     73 N/A N/A MISG        N/A
JACKSON        CLEAR     70  43  37 N8        29.91R
DYERSBURG      CLEAR     70  39  32 N13       29.94R
UNION CITY     CLEAR     66  41  39 N9        29.92R
LEXINGTON      CLEAR     72  46  40 NW10      29.88R
$$

TNZ008-025-027-028-033-062-065-066-230100-
NORTH MIDDLE TENNESSEE

CITY           SKY/WX    TMP DP  RH WIND       PRES   REMARKS
NASHVILLE      CLEAR     72  42  34 N10       29.86R
CLARKSVILLE    CLEAR     67  42  40 N12       29.90R
COOKEVILLE     CLEAR     72  54  53 VRB7      29.84R
CROSSVILLE     PTCLDY    66  55  67 W8        29.85R
$$

TNZ061-075-076-078-094-096-097-230100-
SOUTH MIDDLE TENNESSEE

CITY           SKY/WX    TMP DP  RH WIND       PRES   REMARKS
TULLAHOMA      MOCLDY    64  63  94 SW3       29.86S
WINCHESTER     MOCLDY    70  59  68 N5        29.85R
MCMINNVILLE    PTCLDY    70  55  60 NW7       29.85R
COLUMBIA       MOCLDY    73  63  68 N6        29.84R
$$

TNZ017-018-042-046-047-230100-
NORTHEAST TENNESSEE

CITY           SKY/WX    TMP DP  RH WIND       PRES   REMARKS
TRI CITIES     MOCLDY    64  56  75 SW10      29.79S
ELIZABETHTON   CLOUDY    61  55  82 CALM      29.80R
$$

TNZ012-013-036-069-073-074-230100-
CENTRAL EAST TENNESSEE

CITY           SKY/WX    TMP DP  RH WIND       PRES   REMARKS
KNOXVILLE      PTCLDY    65  60  84 S8        29.80S
OAK RIDGE      CLOUDY    70  60  70 CALM      29.81R
$$

TNZ083-085-099-230100-
SOUTHEAST TENNESSEE

CITY           SKY/WX    TMP DP  RH WIND       PRES   REMARKS
CHATTANOOGA    PTCLDY    71  61  70 CALM      29.82S
$$

SKY/WX REPORTED AS FAIR MEANS FEW OR NO CLOUDS BELOW
12 THOUSAND FEET.




USA.gov is the U.S. government's official web portal to all federal, state and local government web resources and services.